Time,TemperatureF,DewpointF,PressureIn,WindDirection,WindDirectionDegrees,WindSpeedMPH,WindSpeedGustMPH,Humidity,HourlyPrecipIn,Conditions,Clouds,dailyrainin,SoftwareType,DateUTC
2013-02-18 00:00:00,22.6,-4.1,29.50,NNW,340,3.6,3.6,30,0.00,,,0.00,VWS V14.01,2013-02-18 05:00:00,
2013-02-18 00:05:00,22.5,-4.3,29.50,NNW,335,2.7,2.7,30,0.00,,,0.00,VWS V14.01,2013-02-18 05:05:00,
2013-02-18 00:10:00,22.5,-6.5,29.50,NNE,29,0.0,0.0,27,0.00,,,0.00,VWS V14.01,2013-02-18 05:10:00,
2013-02-18 00:15:00,22.5,-6.5,29.50,NW,325,3.6,3.6,27,0.00,,,0.00,VWS V14.01,2013-02-18 05:15:00,
2013-02-18 00:20:00,22.5,-6.5,29.50,NE,55,2.7,2.7,27,0.00,,,0.00,VWS V14.01,2013-02-18 05:20:00,
2013-02-18 00:25:00,22.5,-6.5,29.50,North,0,0.0,0.0,27,0.00,,,0.00,VWS V14.01,2013-02-18 05:25:00,
2013-02-18 00:30:00,22.3,-6.6,29.50,NE,35,4.9,4.9,27,0.00,,,0.00,VWS V14.01,2013-02-18 05:30:00,
2013-02-18 00:35:00,22.1,-6.8,29.50,ENE,64,2.2,3.1,27,0.00,,,0.00,VWS V14.01,2013-02-18 05:35:00,
2013-02-18 00:40:00,21.9,-6.9,29.50,NNE,30,3.1,3.1,27,0.00,,,0.00,VWS V14.01,2013-02-18 05:40:00,
2013-02-18 00:45:00,21.9,-6.9,29.50,WNW,295,3.6,4.9,27,0.00,,,0.00,VWS V14.01,2013-02-18 05:45:00,
2013-02-18 00:50:00,21.9,-6.9,29.50,NE,38,6.3,6.3,27,0.00,,,0.00,VWS V14.01,2013-02-18 05:50:00,
2013-02-18 00:55:00,21.9,-6.9,29.50,ENE,62,2.7,10.5,27,0.00,,,0.00,VWS V14.01,2013-02-18 05:55:00,
2013-02-18 01:00:00,21.9,-6.9,29.50,North,0,0.0,3.1,27,0.00,,,0.00,VWS V14.01,2013-02-18 06:00:00,
2013-02-18 01:05:00,21.9,-6.9,29.50,North,353,3.6,3.6,27,0.00,,,0.00,VWS V14.01,2013-02-18 06:05:00,
2013-02-18 01:10:00,21.9,-6.9,29.50,NNE,19,3.6,5.8,27,0.00,,,0.00,VWS V14.01,2013-02-18 06:10:00,
2013-02-18 01:15:00,21.9,-6.9,29.50,NW,324,2.7,2.7,27,0.00,,,0.00,VWS V14.01,2013-02-18 06:15:00,
2013-02-18 01:20:00,21.9,-6.9,29.50,North,11,0.0,3.6,27,0.00,,,0.00,VWS V14.01,2013-02-18 06:20:00,
2013-02-18 01:25:00,21.7,-7.1,29.50,East,95,0.0,0.0,27,0.00,,,0.00,VWS V14.01,2013-02-18 06:25:00,
2013-02-18 01:30:00,21.7,-7.1,29.50,East,91,0.0,3.1,27,0.00,,,0.00,VWS V14.01,2013-02-18 06:30:00,
2013-02-18 01:35:00,21.7,-7.1,29.53,NNE,12,2.2,3.6,27,0.00,,,0.00,VWS V14.01,2013-02-18 06:35:00,
2013-02-18 01:40:00,21.6,-7.2,29.53,NE,35,0.0,3.1,27,0.00,,,0.00,VWS V14.01,2013-02-18 06:40:00,
2013-02-18 01:45:00,21.7,-7.1,29.53,North,11,0.0,3.6,27,0.00,,,0.00,VWS V14.01,2013-02-18 06:45:00,
2013-02-18 01:50:00,21.6,-7.2,29.53,North,0,0.0,0.0,27,0.00,,,0.00,VWS V14.01,2013-02-18 06:50:00,
2013-02-18 01:55:00,21.6,-7.2,29.53,NW,318,0.0,0.0,27,0.00,,,0.00,VWS V14.01,2013-02-18 06:55:00,
2013-02-18 02:00:00,21.4,-7.4,29.53,NNW,336,0.0,3.6,27,0.00,,,0.00,VWS V14.01,2013-02-18 07:00:00,
2013-02-18 02:05:00,21.4,-7.4,29.53,NW,324,5.4,6.7,27,0.00,,,0.00,VWS V14.01,2013-02-18 07:05:00,
2013-02-18 02:10:00,21.2,-7.6,29.53,NNW,342,2.7,2.7,27,0.00,,,0.00,VWS V14.01,2013-02-18 07:10:00,
2013-02-18 02:15:00,21.2,-7.6,29.53,NNW,337,4.9,4.9,27,0.00,,,0.00,VWS V14.01,2013-02-18 07:15:00,
2013-02-18 02:20:00,21.2,-7.6,29.53,NW,317,5.8,5.8,27,0.00,,,0.00,VWS V14.01,2013-02-18 07:20:00,
2013-02-18 02:25:00,21.2,-7.6,29.53,NE,40,0.0,3.6,27,0.00,,,0.00,VWS V14.01,2013-02-18 07:25:00,
2013-02-18 02:30:00,21.2,-7.6,29.53,NNW,346,3.6,4.0,27,0.00,,,0.00,VWS V14.01,2013-02-18 07:30:00,
2013-02-18 02:35:00,21.2,-7.6,29.53,North,349,2.2,2.2,27,0.00,,,0.00,VWS V14.01,2013-02-18 07:35:00,
2013-02-18 02:40:00,21.2,-7.6,29.53,North,0,4.0,4.0,27,0.00,,,0.00,VWS V14.01,2013-02-18 07:40:00,
2013-02-18 02:45:00,21.2,-7.6,29.53,NNE,23,0.0,0.0,27,0.00,,,0.00,VWS V14.01,2013-02-18 07:45:00,
2013-02-18 02:50:00,21.2,-7.6,29.53,WSW,249,0.0,0.0,27,0.00,,,0.00,VWS V14.01,2013-02-18 07:50:00,
2013-02-18 02:55:00,21.2,-7.6,29.53,ESE,106,0.0,0.0,27,0.00,,,0.00,VWS V14.01,2013-02-18 07:55:00,
2013-02-18 03:00:00,21.2,-7.6,29.53,ESE,102,0.0,0.0,27,0.00,,,0.00,VWS V14.01,2013-02-18 08:00:00,
2013-02-18 03:05:00,21.2,-7.6,29.53,ENE,69,0.0,0.0,27,0.00,,,0.00,VWS V14.01,2013-02-18 08:05:00,
2013-02-18 03:10:00,21.0,-7.7,29.53,ENE,69,0.0,0.0,27,0.00,,,0.00,VWS V14.01,2013-02-18 08:10:00,
2013-02-18 03:15:00,20.8,-7.9,29.53,ENE,69,0.0,0.0,27,0.00,,,0.00,VWS V14.01,2013-02-18 08:15:00,
2013-02-18 03:20:00,21.0,-7.7,29.53,NNW,343,0.0,0.0,27,0.00,,,0.00,VWS V14.01,2013-02-18 08:20:00,
2013-02-18 03:25:00,20.8,-7.9,29.53,North,5,0.0,0.0,27,0.00,,,0.00,VWS V14.01,2013-02-18 08:25:00,
2013-02-18 03:30:00,20.8,-7.9,29.53,East,79,2.7,2.7,27,0.00,,,0.00,VWS V14.01,2013-02-18 08:30:00,
2013-02-18 03:35:00,20.7,-8.0,29.53,NNE,17,0.0,3.1,27,0.00,,,0.00,VWS V14.01,2013-02-18 08:35:00,
2013-02-18 03:40:00,20.5,-8.2,29.53,North,350,3.1,3.1,27,0.00,,,0.00,VWS V14.01,2013-02-18 08:40:00,
2013-02-18 03:45:00,20.3,-8.3,29.53,WNW,298,4.0,4.0,27,0.00,,,0.00,VWS V14.01,2013-02-18 08:45:00,
2013-02-18 03:50:00,20.3,-8.3,29.53,NE,35,4.0,4.0,27,0.00,,,0.00,VWS V14.01,2013-02-18 08:50:00,
2013-02-18 03:55:00,20.5,-8.2,29.53,NNW,332,0.0,3.6,27,0.00,,,0.00,VWS V14.01,2013-02-18 08:55:00,
2013-02-18 04:01:00,20.5,-8.2,29.53,NNW,337,0.0,2.7,27,0.00,,,0.00,VWS V14.01,2013-02-18 09:01:00,
2013-02-18 04:06:00,20.3,-8.3,29.53,North,350,0.0,0.0,27,0.00,,,0.00,VWS V14.01,2013-02-18 09:06:00,
2013-02-18 04:10:00,20.3,-8.3,29.53,North,350,0.0,0.0,27,0.00,,,0.00,VWS V14.01,2013-02-18 09:10:00,
2013-02-18 04:16:00,20.3,-8.3,29.53,North,350,0.0,0.0,27,0.00,,,0.00,VWS V14.01,2013-02-18 09:16:00,
2013-02-18 04:21:00,20.3,-8.3,29.56,NE,35,0.0,0.0,27,0.00,,,0.00,VWS V14.01,2013-02-18 09:21:00,
2013-02-18 04:26:00,20.1,-8.5,29.56,NE,35,2.2,2.2,27,0.00,,,0.00,VWS V14.01,2013-02-18 09:26:00,
2013-02-18 04:31:00,20.1,-8.5,29.56,NE,47,0.0,0.0,27,0.00,,,0.00,VWS V14.01,2013-02-18 09:31:00,
2013-02-18 04:36:00,19.9,-8.6,29.56,WNW,295,0.0,0.0,27,0.00,,,0.00,VWS V14.01,2013-02-18 09:36:00,
2013-02-18 04:41:00,19.8,-8.8,29.56,North,349,0.0,2.2,27,0.00,,,0.00,VWS V14.01,2013-02-18 09:41:00,
2013-02-18 04:46:00,19.8,-8.8,29.56,NNW,340,2.7,2.7,27,0.00,,,0.00,VWS V14.01,2013-02-18 09:46:00,
2013-02-18 04:51:00,19.8,-6.7,29.56,WNW,287,2.2,2.7,30,0.00,,,0.00,VWS V14.01,2013-02-18 09:51:00,
2013-02-18 04:56:00,19.8,-6.7,29.56,WNW,287,0.0,0.0,30,0.00,,,0.00,VWS V14.01,2013-02-18 09:56:00,
2013-02-18 05:01:00,19.8,-6.7,29.56,WNW,287,0.0,0.0,30,0.00,,,0.00,VWS V14.01,2013-02-18 10:01:00,
2013-02-18 05:06:00,19.8,-6.7,29.56,WNW,287,0.0,0.0,30,0.00,,,0.00,VWS V14.01,2013-02-18 10:06:00,
2013-02-18 05:11:00,19.6,-6.8,29.56,NNW,343,0.0,0.0,30,0.00,,,0.00,VWS V14.01,2013-02-18 10:11:00,
2013-02-18 05:16:00,19.4,-7.0,29.56,North,350,0.0,2.7,30,0.00,,,0.00,VWS V14.01,2013-02-18 10:16:00,
2013-02-18 05:21:00,19.4,-7.0,29.56,NNW,339,5.4,5.4,30,0.00,,,0.00,VWS V14.01,2013-02-18 10:21:00,
2013-02-18 05:26:00,19.6,-6.8,29.56,NNW,334,3.6,4.0,30,0.00,,,0.00,VWS V14.01,2013-02-18 10:26:00,
2013-02-18 05:31:00,19.6,-6.8,29.56,NNW,341,4.0,5.4,30,0.00,,,0.00,VWS V14.01,2013-02-18 10:31:00,
2013-02-18 05:36:00,19.6,-6.8,29.59,NW,311,4.9,4.9,30,0.00,,,0.00,VWS V14.01,2013-02-18 10:36:00,
2013-02-18 05:41:00,19.8,-6.7,29.59,NNW,327,4.9,5.4,30,0.00,,,0.00,VWS V14.01,2013-02-18 10:41:00,
2013-02-18 05:46:00,19.8,-6.7,29.59,NNW,340,5.4,6.3,30,0.00,,,0.00,VWS V14.01,2013-02-18 10:46:00,
2013-02-18 05:51:00,19.9,-6.5,29.59,NW,324,0.0,0.0,30,0.00,,,0.00,VWS V14.01,2013-02-18 10:51:00,
2013-02-18 05:56:00,20.1,-6.3,29.59,NNW,341,0.0,0.0,30,0.00,,,0.00,VWS V14.01,2013-02-18 10:56:00,
2013-02-18 06:01:00,20.1,-6.3,29.59,NNW,343,0.0,0.0,30,0.00,,,0.00,VWS V14.01,2013-02-18 11:01:00,
2013-02-18 06:06:00,20.1,-6.3,29.59,NNW,343,0.0,0.0,30,0.00,,,0.00,VWS V14.01,2013-02-18 11:06:00,
2013-02-18 06:11:00,20.1,-6.3,29.59,North,350,0.0,0.0,30,0.00,,,0.00,VWS V14.01,2013-02-18 11:11:00,
2013-02-18 06:16:00,20.1,-8.5,29.59,North,350,2.7,2.7,27,0.00,,,0.00,VWS V14.01,2013-02-18 11:16:00,
2013-02-18 06:21:00,20.1,-8.5,29.59,North,349,0.0,0.0,27,0.00,,,0.00,VWS V14.01,2013-02-18 11:21:00,
2013-02-18 06:26:00,20.1,-8.5,29.59,North,349,0.0,0.0,27,0.00,,,0.00,VWS V14.01,2013-02-18 11:26:00,
2013-02-18 06:31:00,19.9,-6.5,29.59,North,349,0.0,0.0,30,0.00,,,0.00,VWS V14.01,2013-02-18 11:31:00,
2013-02-18 06:36:00,19.8,-6.7,29.59,North,349,0.0,0.0,30,0.00,,,0.00,VWS V14.01,2013-02-18 11:36:00,
2013-02-18 06:41:00,19.6,-6.8,29.59,North,349,0.0,0.0,30,0.00,,,0.00,VWS V14.01,2013-02-18 11:41:00,
2013-02-18 06:46:00,19.6,-6.8,29.59,North,349,0.0,0.0,30,0.00,,,0.00,VWS V14.01,2013-02-18 11:46:00,
2013-02-18 06:51:00,19.4,-7.0,29.59,North,349,0.0,0.0,30,0.00,,,0.00,VWS V14.01,2013-02-18 11:51:00,
2013-02-18 06:56:00,19.2,-7.1,29.59,North,349,0.0,0.0,30,0.00,,,0.00,VWS V14.01,2013-02-18 11:56:00,
2013-02-18 07:01:00,19.2,-7.1,29.59,North,349,0.0,0.0,30,0.00,,,0.00,VWS V14.01,2013-02-18 12:01:00,
2013-02-18 07:06:00,19.0,-7.3,29.59,North,349,0.0,0.0,30,0.00,,,0.00,VWS V14.01,2013-02-18 12:06:00,
2013-02-18 07:11:00,18.9,-7.4,29.59,North,349,0.0,0.0,30,0.00,,,0.00,VWS V14.01,2013-02-18 12:11:00,
2013-02-18 07:16:00,19.0,-7.3,29.62,North,349,0.0,0.0,30,0.00,,,0.00,VWS V14.01,2013-02-18 12:16:00,
2013-02-18 07:21:00,18.9,-7.4,29.62,North,349,0.0,0.0,30,0.00,,,0.00,VWS V14.01,2013-02-18 12:21:00,
2013-02-18 07:26:00,18.7,-7.6,29.62,North,349,0.0,0.0,30,0.00,,,0.00,VWS V14.01,2013-02-18 12:26:00,
2013-02-18 07:31:00,19.0,-7.3,29.62,North,349,0.0,0.0,30,0.00,,,0.00,VWS V14.01,2013-02-18 12:31:00,
2013-02-18 07:36:00,19.0,-7.3,29.62,North,349,0.0,0.0,30,0.00,,,0.00,VWS V14.01,2013-02-18 12:36:00,
2013-02-18 07:41:00,19.2,-7.1,29.62,North,349,0.0,0.0,30,0.00,,,0.00,VWS V14.01,2013-02-18 12:41:00,
2013-02-18 07:46:00,19.4,-7.0,29.62,North,349,0.0,0.0,30,0.00,,,0.00,VWS V14.01,2013-02-18 12:46:00,
2013-02-18 07:51:00,19.6,-5.5,29.62,North,349,0.0,0.0,32,0.00,,,0.00,VWS V14.01,2013-02-18 12:51:00,
2013-02-18 07:56:00,19.8,-5.3,29.62,North,349,0.0,0.0,32,0.00,,,0.00,VWS V14.01,2013-02-18 12:56:00,
2013-02-18 08:01:00,20.1,-5.0,29.65,North,349,0.0,0.0,32,0.00,,,0.00,VWS V14.01,2013-02-18 13:01:00,
2013-02-18 08:06:00,20.3,-4.8,29.65,North,349,0.0,0.0,32,0.00,,,0.00,VWS V14.01,2013-02-18 13:06:00,
2013-02-18 08:11:00,20.5,-4.7,29.65,North,349,0.0,0.0,32,0.00,,,0.00,VWS V14.01,2013-02-18 13:11:00,
2013-02-18 08:16:00,20.8,-4.4,29.65,North,349,0.0,0.0,32,0.00,,,0.00,VWS V14.01,2013-02-18 13:16:00,
2013-02-18 08:21:00,21.2,-4.0,29.65,North,349,0.0,0.0,32,0.00,,,0.00,VWS V14.01,2013-02-18 13:21:00,
2013-02-18 08:26:00,21.6,-3.7,29.65,North,349,0.0,0.0,32,0.00,,,0.00,VWS V14.01,2013-02-18 13:26:00,
2013-02-18 08:31:00,21.9,-3.4,29.65,North,349,0.0,0.0,32,0.00,,,0.00,VWS V14.01,2013-02-18 13:31:00,
2013-02-18 08:36:00,22.1,-3.2,29.65,North,349,0.0,0.0,32,0.00,,,0.00,VWS V14.01,2013-02-18 13:36:00,
2013-02-18 08:41:00,22.5,-2.9,29.65,North,349,0.0,0.0,32,0.00,,,0.00,VWS V14.01,2013-02-18 13:41:00,
2013-02-18 08:46:00,22.8,-2.6,29.65,North,349,0.0,0.0,32,0.00,,,0.00,VWS V14.01,2013-02-18 13:46:00,
2013-02-18 08:51:00,23.0,-2.5,29.65,NNW,348,0.0,0.0,32,0.00,,,0.00,VWS V14.01,2013-02-18 13:51:00,
2013-02-18 08:56:00,23.4,-2.1,29.65,NNW,348,0.0,0.0,32,0.00,,,0.00,VWS V14.01,2013-02-18 13:56:00,
2013-02-18 09:01:00,23.5,-2.0,29.65,NNW,348,0.0,0.0,32,0.00,,,0.00,VWS V14.01,2013-02-18 14:01:00,
2013-02-18 09:06:00,23.9,-3.7,29.65,NNW,348,0.0,0.0,29,0.00,,,0.00,VWS V14.01,2013-02-18 14:06:00,
2013-02-18 09:11:00,24.6,-3.1,29.65,North,0,0.0,2.7,29,0.00,,,0.00,VWS V14.01,2013-02-18 14:11:00,
2013-02-18 09:16:00,25.5,-2.3,29.65,North,0,0.0,0.0,29,0.00,,,0.00,VWS V14.01,2013-02-18 14:16:00,
2013-02-18 09:21:00,26.8,-1.9,29.65,North,0,0.0,0.0,28,0.00,,,0.00,VWS V14.01,2013-02-18 14:21:00,
2013-02-18 09:26:00,27.5,-2.9,29.65,NNE,19,0.0,0.0,26,0.00,,,0.00,VWS V14.01,2013-02-18 14:26:00,
2013-02-18 09:31:00,27.7,-2.7,29.65,North,0,0.0,0.0,26,0.00,,,0.00,VWS V14.01,2013-02-18 14:31:00,
2013-02-18 09:36:00,28.0,-2.4,29.65,NNW,332,0.0,0.0,26,0.00,,,0.00,VWS V14.01,2013-02-18 14:36:00,
2013-02-18 09:41:00,28.2,-2.2,29.65,North,357,2.2,5.4,26,0.00,,,0.00,VWS V14.01,2013-02-18 14:41:00,
2013-02-18 09:46:00,28.8,-2.6,29.62,West,274,2.2,2.2,25,0.00,,,0.00,VWS V14.01,2013-02-18 14:46:00,
2013-02-18 09:51:00,29.5,-2.0,29.62,North,5,0.0,2.2,25,0.00,,,0.00,VWS V14.01,2013-02-18 14:51:00,
2013-02-18 09:56:00,29.7,-1.8,29.62,NW,305,0.0,2.2,25,0.00,,,0.00,VWS V14.01,2013-02-18 14:56:00,
2013-02-18 10:01:00,30.7,-0.9,29.62,ENE,64,0.0,3.1,25,0.00,,,0.00,VWS V14.01,2013-02-18 15:01:00,
2013-02-18 10:06:00,31.3,-0.4,29.62,NW,321,0.0,0.0,25,0.00,,,0.00,VWS V14.01,2013-02-18 15:06:00,
2013-02-18 10:11:00,31.6,-0.1,29.62,East,94,0.0,2.2,25,0.00,,,0.00,VWS V14.01,2013-02-18 15:11:00,
2013-02-18 10:17:00,32.2,0.3,29.62,East,92,0.0,0.0,25,0.00,,,0.00,VWS V14.01,2013-02-18 15:17:00,
2013-02-18 10:22:00,32.2,0.3,29.62,WNW,290,0.0,3.1,25,0.00,,,0.00,VWS V14.01,2013-02-18 15:22:00,
2013-02-18 10:27:00,32.2,0.3,29.62,NE,49,0.0,2.2,25,0.00,,,0.00,VWS V14.01,2013-02-18 15:27:00,
2013-02-18 10:32:00,32.4,0.5,29.62,North,0,0.0,3.1,25,0.00,,,0.00,VWS V14.01,2013-02-18 15:32:00,
2013-02-18 10:37:00,32.4,-1.3,29.62,NW,312,0.0,0.0,23,0.00,,,0.00,VWS V14.01,2013-02-18 15:37:00,
2013-02-18 10:42:00,32.2,-1.4,29.62,NW,317,0.0,0.0,23,0.00,,,0.00,VWS V14.01,2013-02-18 15:42:00,
2013-02-18 10:47:00,32.2,-1.4,29.62,NNW,330,0.0,3.1,23,0.00,,,0.00,VWS V14.01,2013-02-18 15:47:00,
2013-02-18 10:52:00,33.1,1.1,29.62,NNW,341,2.2,2.2,25,0.00,,,0.00,VWS V14.01,2013-02-18 15:52:00,
2013-02-18 10:57:00,33.6,1.6,29.62,ENE,72,0.0,0.0,25,0.00,,,0.00,VWS V14.01,2013-02-18 15:57:00,
2013-02-18 11:02:00,33.3,-0.5,29.62,SE,136,0.0,0.0,23,0.00,,,0.00,VWS V14.01,2013-02-18 16:02:00,
2013-02-18 11:07:00,33.6,-0.2,29.62,ESE,122,3.1,5.4,23,0.00,,,0.00,VWS V14.01,2013-02-18 16:07:00,
2013-02-18 11:12:00,33.6,-0.2,29.62,North,350,0.0,0.0,23,0.00,,,0.00,VWS V14.01,2013-02-18 16:12:00,
2013-02-18 11:17:00,33.3,-0.5,29.62,NW,306,0.0,0.0,23,0.00,,,0.00,VWS V14.01,2013-02-18 16:17:00,
2013-02-18 11:22:00,33.1,-0.7,29.62,NNW,348,0.0,0.0,23,0.00,,,0.00,VWS V14.01,2013-02-18 16:22:00,
2013-02-18 11:27:00,33.6,-0.2,29.62,East,99,0.0,0.0,23,0.00,,,0.00,VWS V14.01,2013-02-18 16:27:00,
2013-02-18 11:32:00,34.3,2.2,29.59,East,87,3.1,4.9,25,0.00,,,0.00,VWS V14.01,2013-02-18 16:32:00,
2013-02-18 11:37:00,33.8,-1.0,29.59,West,279,0.0,0.0,22,0.00,,,0.00,VWS V14.01,2013-02-18 16:37:00,
2013-02-18 11:42:00,33.8,-1.0,29.59,ESE,117,4.0,5.4,22,0.00,,,0.00,VWS V14.01,2013-02-18 16:42:00,
2013-02-18 11:47:00,34.3,-0.6,29.59,NW,315,0.0,0.0,22,0.00,,,0.00,VWS V14.01,2013-02-18 16:47:00,
2013-02-18 11:52:00,34.5,-0.4,29.59,ENE,74,2.2,2.2,22,0.00,,,0.00,VWS V14.01,2013-02-18 16:52:00,
2013-02-18 11:57:00,34.5,-0.4,29.59,North,353,0.0,0.0,22,0.00,,,0.00,VWS V14.01,2013-02-18 16:57:00,
2013-02-18 12:02:00,34.9,-0.1,29.59,SW,218,2.7,2.7,22,0.00,,,0.00,VWS V14.01,2013-02-18 17:02:00,
2013-02-18 12:07:00,35.4,0.4,29.59,ESE,103,0.0,3.1,22,0.00,,,0.00,VWS V14.01,2013-02-18 17:07:00,
2013-02-18 12:12:00,35.6,0.5,29.59,North,353,3.1,4.0,22,0.00,,,0.00,VWS V14.01,2013-02-18 17:12:00,
2013-02-18 12:17:00,35.6,0.5,29.59,ESE,112,0.0,0.0,22,0.00,,,0.00,VWS V14.01,2013-02-18 17:17:00,
2013-02-18 12:22:00,36.0,0.8,29.59,ENE,71,0.0,0.0,22,0.00,,,0.00,VWS V14.01,2013-02-18 17:22:00,
2013-02-18 12:27:00,35.8,0.7,29.59,NW,326,3.6,3.6,22,0.00,,,0.00,VWS V14.01,2013-02-18 17:27:00,
2013-02-18 12:32:00,35.8,0.7,29.56,SE,129,2.7,2.7,22,0.00,,,0.00,VWS V14.01,2013-02-18 17:32:00,
2013-02-18 12:37:00,36.1,1.0,29.56,SE,135,3.6,3.6,22,0.00,,,0.00,VWS V14.01,2013-02-18 17:37:00,
2013-02-18 12:42:00,36.3,1.1,29.56,NNE,31,0.0,4.0,22,0.00,,,0.00,VWS V14.01,2013-02-18 17:42:00,
2013-02-18 12:47:00,36.3,1.1,29.56,East,98,3.6,3.6,22,0.00,,,0.00,VWS V14.01,2013-02-18 17:47:00,
2013-02-18 12:52:00,36.7,1.4,29.56,ESE,105,2.7,2.7,22,0.00,,,0.00,VWS V14.01,2013-02-18 17:52:00,
2013-02-18 12:57:00,36.9,1.6,29.56,East,98,2.2,2.2,22,0.00,,,0.00,VWS V14.01,2013-02-18 17:57:00,
2013-02-18 13:02:00,37.0,1.7,29.53,North,0,0.0,0.0,22,0.00,,,0.00,VWS V14.01,2013-02-18 18:02:00,
2013-02-18 13:07:00,37.0,1.7,29.53,East,81,2.2,3.1,22,0.00,,,0.00,VWS V14.01,2013-02-18 18:07:00,
2013-02-18 13:12:00,37.4,1.0,29.53,East,100,2.2,3.1,21,0.00,,,0.00,VWS V14.01,2013-02-18 18:12:00,
2013-02-18 13:17:00,37.9,1.5,29.53,NNW,334,2.7,2.7,21,0.00,,,0.00,VWS V14.01,2013-02-18 18:17:00,
2013-02-18 13:22:00,38.1,1.6,29.53,NNW,340,0.0,0.0,21,0.00,,,0.00,VWS V14.01,2013-02-18 18:22:00,
2013-02-18 13:27:00,38.3,1.8,29.53,North,357,4.0,5.4,21,0.00,,,0.00,VWS V14.01,2013-02-18 18:27:00,
2013-02-18 13:32:00,38.7,2.1,29.53,South,177,0.0,0.0,21,0.00,,,0.00,VWS V14.01,2013-02-18 18:32:00,
2013-02-18 13:37:00,38.7,2.1,29.53,SE,126,0.0,0.0,21,0.00,,,0.00,VWS V14.01,2013-02-18 18:37:00,
2013-02-18 13:42:00,38.7,2.1,29.53,SE,139,4.0,4.0,21,0.00,,,0.00,VWS V14.01,2013-02-18 18:42:00,
2013-02-18 13:47:00,39.0,2.4,29.53,SE,130,3.1,4.0,21,0.00,,,0.00,VWS V14.01,2013-02-18 18:47:00,
2013-02-18 13:53:00,38.8,2.3,29.53,ESE,102,3.6,3.6,21,0.00,,,0.00,VWS V14.01,2013-02-18 18:53:00,
2013-02-18 13:58:00,39.0,2.4,29.53,SE,133,2.2,2.2,21,0.00,,,0.00,VWS V14.01,2013-02-18 18:58:00,
2013-02-18 14:03:00,39.4,2.7,29.50,ESE,120,0.0,4.0,21,0.00,,,0.00,VWS V14.01,2013-02-18 19:03:00,
2013-02-18 14:08:00,39.6,2.9,29.50,ESE,122,2.2,3.6,21,0.00,,,0.00,VWS V14.01,2013-02-18 19:08:00,
2013-02-18 14:13:00,39.7,3.0,29.50,SE,132,3.6,4.0,21,0.00,,,0.00,VWS V14.01,2013-02-18 19:13:00,
2013-02-18 14:18:00,39.7,3.0,29.50,ESE,115,3.1,4.9,21,0.00,,,0.00,VWS V14.01,2013-02-18 19:18:00,
2013-02-18 14:23:00,40.1,3.3,29.50,ESE,104,0.0,2.7,21,0.00,,,0.00,VWS V14.01,2013-02-18 19:23:00,
2013-02-18 14:28:00,40.5,3.6,29.50,NW,314,3.6,5.4,21,0.00,,,0.00,VWS V14.01,2013-02-18 19:28:00,
2013-02-18 14:33:00,40.5,3.6,29.50,SE,135,3.6,4.9,21,0.00,,,0.00,VWS V14.01,2013-02-18 19:33:00,
2013-02-18 14:38:00,40.8,3.9,29.50,WNW,294,0.0,3.1,21,0.00,,,0.00,VWS V14.01,2013-02-18 19:38:00,
2013-02-18 14:43:00,41.0,4.1,29.50,NNW,335,0.0,0.0,21,0.00,,,0.00,VWS V14.01,2013-02-18 19:43:00,
2013-02-18 14:48:00,41.4,4.4,29.50,NNW,344,2.7,4.0,21,0.00,,,0.00,VWS V14.01,2013-02-18 19:48:00,
2013-02-18 14:53:00,41.4,4.4,29.50,East,93,2.7,3.6,21,0.00,,,0.00,VWS V14.01,2013-02-18 19:53:00,
2013-02-18 14:58:00,41.5,4.5,29.50,North,353,2.7,4.9,21,0.00,,,0.00,VWS V14.01,2013-02-18 19:58:00,
2013-02-18 15:03:00,41.7,4.7,29.50,SSE,156,0.0,2.7,21,0.00,,,0.00,VWS V14.01,2013-02-18 20:03:00,
2013-02-18 15:08:00,41.7,4.7,29.50,NE,39,0.0,3.6,21,0.00,,,0.00,VWS V14.01,2013-02-18 20:08:00,
2013-02-18 15:13:00,41.9,4.8,29.50,SE,126,3.1,3.6,21,0.00,,,0.00,VWS V14.01,2013-02-18 20:13:00,
2013-02-18 15:18:00,42.1,5.0,29.47,NW,322,2.2,3.1,21,0.00,,,0.00,VWS V14.01,2013-02-18 20:18:00,
2013-02-18 15:23:00,42.1,5.0,29.47,ESE,117,2.7,2.7,21,0.00,,,0.00,VWS V14.01,2013-02-18 20:23:00,
2013-02-18 15:28:00,42.4,5.3,29.47,East,87,3.6,4.5,21,0.00,,,0.00,VWS V14.01,2013-02-18 20:28:00,
2013-02-18 15:33:00,42.4,5.3,29.47,SE,130,2.7,2.7,21,0.00,,,0.00,VWS V14.01,2013-02-18 20:33:00,
2013-02-18 15:38:00,42.6,5.4,29.47,SE,125,3.6,3.6,21,0.00,,,0.00,VWS V14.01,2013-02-18 20:38:00,
2013-02-18 15:43:00,42.6,5.4,29.47,South,177,0.0,0.0,21,0.00,,,0.00,VWS V14.01,2013-02-18 20:43:00,
2013-02-18 15:48:00,42.8,4.5,29.47,ESE,102,3.1,3.6,20,0.00,,,0.00,VWS V14.01,2013-02-18 20:48:00,
2013-02-18 15:53:00,43.2,4.8,29.47,ESE,107,3.1,4.0,20,0.00,,,0.00,VWS V14.01,2013-02-18 20:53:00,
2013-02-18 15:58:00,43.3,5.0,29.47,SSE,154,3.1,5.4,20,0.00,,,0.00,VWS V14.01,2013-02-18 20:58:00,
2013-02-18 16:03:00,43.3,5.0,29.47,ESE,122,3.1,3.1,20,0.00,,,0.00,VWS V14.01,2013-02-18 21:03:00,
2013-02-18 16:08:00,43.2,4.8,29.47,East,90,4.9,4.9,20,0.00,,,0.00,VWS V14.01,2013-02-18 21:08:00,
2013-02-18 16:13:00,43.0,4.7,29.47,ESE,109,2.7,2.7,20,0.00,,,0.00,VWS V14.01,2013-02-18 21:13:00,
2013-02-18 16:18:00,42.6,5.4,29.47,ESE,105,3.6,3.6,21,0.00,,,0.00,VWS V14.01,2013-02-18 21:18:00,
2013-02-18 16:23:00,42.4,5.3,29.47,ESE,103,3.1,3.1,21,0.00,,,0.00,VWS V14.01,2013-02-18 21:23:00,
2013-02-18 16:28:00,42.3,5.1,29.47,East,96,0.0,2.2,21,0.00,,,0.00,VWS V14.01,2013-02-18 21:28:00,
2013-02-18 16:33:00,42.3,5.1,29.47,ESE,120,3.1,3.1,21,0.00,,,0.00,VWS V14.01,2013-02-18 21:33:00,
2013-02-18 16:38:00,42.1,5.0,29.47,East,100,0.0,0.0,21,0.00,,,0.00,VWS V14.01,2013-02-18 21:38:00,
2013-02-18 16:43:00,42.1,5.0,29.47,ESE,104,2.7,2.7,21,0.00,,,0.00,VWS V14.01,2013-02-18 21:43:00,
2013-02-18 16:48:00,42.1,5.0,29.47,ESE,109,0.0,2.7,21,0.00,,,0.00,VWS V14.01,2013-02-18 21:48:00,
2013-02-18 16:53:00,41.9,4.8,29.47,East,98,3.1,3.1,21,0.00,,,0.00,VWS V14.01,2013-02-18 21:53:00,
2013-02-18 16:58:00,41.7,4.7,29.47,East,87,0.0,3.1,21,0.00,,,0.00,VWS V14.01,2013-02-18 21:58:00,
2013-02-18 17:03:00,41.5,4.5,29.47,SE,140,0.0,2.7,21,0.00,,,0.00,VWS V14.01,2013-02-18 22:03:00,
2013-02-18 17:08:00,41.2,4.2,29.47,ESE,113,2.7,4.0,21,0.00,,,0.00,VWS V14.01,2013-02-18 22:08:00,
2013-02-18 17:13:00,41.0,4.1,29.47,East,90,0.0,2.2,21,0.00,,,0.00,VWS V14.01,2013-02-18 22:13:00,
2013-02-18 17:18:00,40.6,3.8,29.47,East,91,0.0,0.0,21,0.00,,,0.00,VWS V14.01,2013-02-18 22:18:00,
2013-02-18 17:23:00,40.5,3.6,29.47,East,98,0.0,0.0,21,0.00,,,0.00,VWS V14.01,2013-02-18 22:23:00,
2013-02-18 17:28:00,40.3,3.5,29.47,East,98,0.0,0.0,21,0.00,,,0.00,VWS V14.01,2013-02-18 22:28:00,
2013-02-18 17:33:00,39.9,3.2,29.47,East,99,0.0,0.0,21,0.00,,,0.00,VWS V14.01,2013-02-18 22:33:00,
2013-02-18 17:38:00,39.7,3.0,29.47,East,89,0.0,0.0,21,0.00,,,0.00,VWS V14.01,2013-02-18 22:38:00,
2013-02-18 17:43:00,39.6,2.9,29.47,East,89,0.0,0.0,21,0.00,,,0.00,VWS V14.01,2013-02-18 22:43:00,
2013-02-18 17:48:00,39.2,2.6,29.47,East,89,0.0,0.0,21,0.00,,,0.00,VWS V14.01,2013-02-18 22:48:00,
2013-02-18 17:53:00,38.8,2.3,29.47,East,89,0.0,0.0,21,0.00,,,0.00,VWS V14.01,2013-02-18 22:53:00,
2013-02-18 17:58:00,38.5,2.0,29.47,East,89,0.0,0.0,21,0.00,,,0.00,VWS V14.01,2013-02-18 22:58:00,
2013-02-18 18:03:00,38.1,1.6,29.47,East,89,0.0,0.0,21,0.00,,,0.00,VWS V14.01,2013-02-18 23:03:00,
2013-02-18 18:08:00,37.9,1.5,29.47,East,89,0.0,0.0,21,0.00,,,0.00,VWS V14.01,2013-02-18 23:08:00,
2013-02-18 18:13:00,37.6,1.2,29.47,East,89,0.0,0.0,21,0.00,,,0.00,VWS V14.01,2013-02-18 23:13:00,
2013-02-18 18:18:00,37.4,1.0,29.47,East,89,0.0,0.0,21,0.00,,,0.00,VWS V14.01,2013-02-18 23:18:00,
2013-02-18 18:24:00,37.2,1.9,29.47,East,89,0.0,0.0,22,0.00,,,0.00,VWS V14.01,2013-02-18 23:24:00,
2013-02-18 18:29:00,37.0,1.7,29.47,East,89,0.0,0.0,22,0.00,,,0.00,VWS V14.01,2013-02-18 23:29:00,
2013-02-18 18:34:00,36.9,1.6,29.47,East,89,0.0,0.0,22,0.00,,,0.00,VWS V14.01,2013-02-18 23:34:00,
2013-02-18 18:39:00,36.7,1.4,29.47,East,89,0.0,0.0,22,0.00,,,0.00,VWS V14.01,2013-02-18 23:39:00,
2013-02-18 18:44:00,36.5,1.3,29.47,East,89,0.0,0.0,22,0.00,,,0.00,VWS V14.01,2013-02-18 23:44:00,
2013-02-18 18:49:00,36.3,1.1,29.47,East,89,0.0,0.0,22,0.00,,,0.00,VWS V14.01,2013-02-18 23:49:00,
2013-02-18 18:54:00,36.3,1.1,29.47,East,89,0.0,0.0,22,0.00,,,0.00,VWS V14.01,2013-02-18 23:54:00,
2013-02-18 18:59:00,36.1,1.0,29.47,East,89,0.0,0.0,22,0.00,,,0.00,VWS V14.01,2013-02-18 23:59:00,
2013-02-18 19:04:00,36.1,1.0,29.44,East,89,0.0,0.0,22,0.00,,,0.00,VWS V14.01,2013-02-19 00:04:00,
2013-02-18 19:09:00,36.1,1.0,29.44,East,85,0.0,0.0,22,0.00,,,0.00,VWS V14.01,2013-02-19 00:09:00,
2013-02-18 19:14:00,36.1,1.0,29.44,East,87,0.0,2.2,22,0.00,,,0.00,VWS V14.01,2013-02-19 00:14:00,
2013-02-18 19:19:00,36.3,1.1,29.44,East,87,0.0,0.0,22,0.00,,,0.00,VWS V14.01,2013-02-19 00:19:00,
2013-02-18 19:24:00,36.3,1.1,29.44,ENE,66,0.0,0.0,22,0.00,,,0.00,VWS V14.01,2013-02-19 00:24:00,
2013-02-18 19:29:00,36.5,1.3,29.44,East,87,0.0,3.6,22,0.00,,,0.00,VWS V14.01,2013-02-19 00:29:00,
2013-02-18 19:34:00,36.7,1.4,29.44,East,98,0.0,0.0,22,0.00,,,0.00,VWS V14.01,2013-02-19 00:34:00,
2013-02-18 19:39:00,36.7,1.4,29.44,ESE,118,2.7,4.9,22,0.00,,,0.00,VWS V14.01,2013-02-19 00:39:00,
2013-02-18 19:44:00,36.7,1.4,29.44,East,90,0.0,0.0,22,0.00,,,0.00,VWS V14.01,2013-02-19 00:44:00,
2013-02-18 19:49:00,36.7,1.4,29.44,East,89,0.0,0.0,22,0.00,,,0.00,VWS V14.01,2013-02-19 00:49:00,
2013-02-18 19:54:00,36.7,1.4,29.44,East,91,0.0,2.2,22,0.00,,,0.00,VWS V14.01,2013-02-19 00:54:00,
2013-02-18 19:59:00,36.7,1.4,29.44,East,88,0.0,0.0,22,0.00,,,0.00,VWS V14.01,2013-02-19 00:59:00,
2013-02-18 20:04:00,36.5,1.3,29.44,East,93,0.0,0.0,22,0.00,,,0.00,VWS V14.01,2013-02-19 01:04:00,
2013-02-18 20:09:00,36.5,1.3,29.44,East,89,2.2,2.7,22,0.00,,,0.00,VWS V14.01,2013-02-19 01:09:00,
2013-02-18 20:14:00,36.5,1.3,29.44,East,101,0.0,0.0,22,0.00,,,0.00,VWS V14.01,2013-02-19 01:14:00,
2013-02-18 20:19:00,36.5,1.3,29.41,East,92,2.7,2.7,22,0.00,,,0.00,VWS V14.01,2013-02-19 01:19:00,
2013-02-18 20:24:00,36.5,1.3,29.41,East,93,0.0,0.0,22,0.00,,,0.00,VWS V14.01,2013-02-19 01:24:00,
2013-02-18 20:29:00,36.5,1.3,29.41,East,92,0.0,0.0,22,0.00,,,0.00,VWS V14.01,2013-02-19 01:29:00,
2013-02-18 20:34:00,36.7,1.4,29.41,East,89,3.1,3.1,22,0.00,,,0.00,VWS V14.01,2013-02-19 01:34:00,
2013-02-18 20:39:00,36.7,1.4,29.41,East,88,0.0,0.0,22,0.00,,,0.00,VWS V14.01,2013-02-19 01:39:00,
2013-02-18 20:44:00,36.7,1.4,29.41,East,83,0.0,0.0,22,0.00,,,0.00,VWS V14.01,2013-02-19 01:44:00,
2013-02-18 20:49:00,36.7,1.4,29.41,SSE,163,0.0,2.7,22,0.00,,,0.00,VWS V14.01,2013-02-19 01:49:00,
2013-02-18 20:54:00,36.9,1.6,29.41,ESE,112,0.0,3.1,22,0.00,,,0.00,VWS V14.01,2013-02-19 01:54:00,
2013-02-18 20:59:00,36.9,1.6,29.41,ESE,102,3.6,3.6,22,0.00,,,0.00,VWS V14.01,2013-02-19 01:59:00,
2013-02-18 21:04:00,37.0,1.7,29.41,SE,129,2.2,2.2,22,0.00,,,0.00,VWS V14.01,2013-02-19 02:04:00,
2013-02-18 21:09:00,37.0,3.6,29.41,ESE,105,2.7,2.7,24,0.00,,,0.00,VWS V14.01,2013-02-19 02:09:00,
2013-02-18 21:14:00,37.0,3.6,29.41,ESE,122,2.2,2.2,24,0.00,,,0.00,VWS V14.01,2013-02-19 02:14:00,
2013-02-18 21:19:00,37.2,3.8,29.41,ESE,122,2.7,3.1,24,0.00,,,0.00,VWS V14.01,2013-02-19 02:19:00,
2013-02-18 21:24:00,37.2,3.8,29.41,East,95,3.1,4.9,24,0.00,,,0.00,VWS V14.01,2013-02-19 02:24:00,
2013-02-18 21:29:00,37.4,3.9,29.41,East,85,0.0,0.0,24,0.00,,,0.00,VWS V14.01,2013-02-19 02:29:00,
2013-02-18 21:34:00,37.4,3.9,29.41,ESE,114,3.1,3.1,24,0.00,,,0.00,VWS V14.01,2013-02-19 02:34:00,
2013-02-18 21:39:00,37.6,4.1,29.41,East,98,3.1,3.1,24,0.00,,,0.00,VWS V14.01,2013-02-19 02:39:00,
2013-02-18 21:44:00,37.6,4.1,29.41,SE,129,2.7,2.7,24,0.00,,,0.00,VWS V14.01,2013-02-19 02:44:00,
2013-02-18 21:49:00,37.4,3.9,29.41,ESE,102,2.2,4.9,24,0.00,,,0.00,VWS V14.01,2013-02-19 02:49:00,
2013-02-18 21:54:00,37.4,3.9,29.41,ESE,121,0.0,0.0,24,0.00,,,0.00,VWS V14.01,2013-02-19 02:54:00,
2013-02-18 21:59:00,37.4,3.9,29.41,East,87,0.0,0.0,24,0.00,,,0.00,VWS V14.01,2013-02-19 02:59:00,
2013-02-18 22:04:00,37.2,3.8,29.41,ESE,106,2.2,2.7,24,0.00,,,0.00,VWS V14.01,2013-02-19 03:04:00,
2013-02-18 22:09:00,37.0,3.6,29.41,East,89,0.0,0.0,24,0.00,,,0.00,VWS V14.01,2013-02-19 03:09:00,
2013-02-18 22:14:00,36.9,3.5,29.41,ESE,105,0.0,0.0,24,0.00,,,0.00,VWS V14.01,2013-02-19 03:14:00,
2013-02-18 22:19:00,36.9,3.5,29.41,East,90,0.0,0.0,24,0.00,,,0.00,VWS V14.01,2013-02-19 03:19:00,
2013-02-18 22:24:00,36.7,3.3,29.41,ESE,123,0.0,0.0,24,0.00,,,0.00,VWS V14.01,2013-02-19 03:24:00,
2013-02-18 22:29:00,36.7,3.3,29.41,ESE,108,0.0,4.0,24,0.00,,,0.00,VWS V14.01,2013-02-19 03:29:00,
2013-02-18 22:34:00,36.7,3.3,29.38,SE,138,3.6,3.6,24,0.00,,,0.00,VWS V14.01,2013-02-19 03:34:00,
2013-02-18 22:39:00,36.7,3.3,29.38,SE,140,3.1,3.1,24,0.00,,,0.00,VWS V14.01,2013-02-19 03:39:00,
2013-02-18 22:44:00,36.7,3.3,29.38,East,93,0.0,0.0,24,0.00,,,0.00,VWS V14.01,2013-02-19 03:44:00,
2013-02-18 22:49:00,36.7,3.3,29.38,East,88,0.0,0.0,24,0.00,,,0.00,VWS V14.01,2013-02-19 03:49:00,
2013-02-18 22:54:00,36.5,3.2,29.38,ESE,102,4.0,4.0,24,0.00,,,0.00,VWS V14.01,2013-02-19 03:54:00,
2013-02-18 22:59:00,36.3,3.0,29.38,ESE,118,0.0,2.2,24,0.00,,,0.00,VWS V14.01,2013-02-19 03:59:00,
2013-02-18 23:04:00,36.3,3.0,29.38,ESE,105,0.0,0.0,24,0.00,,,0.00,VWS V14.01,2013-02-19 04:04:00,
2013-02-18 23:09:00,36.1,2.8,29.38,East,88,0.0,0.0,24,0.00,,,0.00,VWS V14.01,2013-02-19 04:09:00,
2013-02-18 23:14:00,36.0,2.7,29.38,East,87,0.0,0.0,24,0.00,,,0.00,VWS V14.01,2013-02-19 04:14:00,
2013-02-18 23:20:00,35.8,2.5,29.38,East,87,0.0,0.0,24,0.00,,,0.00,VWS V14.01,2013-02-19 04:20:00,
2013-02-18 23:25:00,35.6,2.4,29.38,East,87,0.0,0.0,24,0.00,,,0.00,VWS V14.01,2013-02-19 04:25:00,
2013-02-18 23:30:00,35.4,3.1,29.38,NNW,341,0.0,0.0,25,0.00,,,0.00,VWS V14.01,2013-02-19 04:30:00,
2013-02-18 23:35:00,35.2,3.0,29.38,NNW,341,0.0,0.0,25,0.00,,,0.00,VWS V14.01,2013-02-19 04:35:00,
2013-02-18 23:40:00,34.9,2.6,29.38,NNW,342,0.0,0.0,25,0.00,,,0.00,VWS V14.01,2013-02-19 04:40:00,
2013-02-18 23:45:00,34.9,4.3,29.38,NNW,342,0.0,0.0,27,0.00,,,0.00,VWS V14.01,2013-02-19 04:45:00,
2013-02-18 23:50:00,34.9,4.3,29.38,NNW,344,0.0,0.0,27,0.00,,,0.00,VWS V14.01,2013-02-19 04:50:00,
2013-02-18 23:55:00,34.9,4.3,29.38,East,93,0.0,0.0,27,0.00,,,0.00,VWS V14.01,2013-02-19 04:55:00,